Location: Barrio de Buenos Aires
(28.4500°N, 16.2667°W)
Time: 18:42:33
(UTC+00:00)

Cosmos 1980 - Pass Details

Date: 24 January 2020
Orbit: 838 x 849 km, 71.0° (Epoch: 26 February)

Event Time Altitude Azimuth Distance (km) Brightness Sun altitude
Rises 19:26:58 0° 337° (NNW) 3,412 7.0 -11.1°
Reaches altitude 10° 19:29:26 10° 335° (NNW) 2,474 6.3 -11.6°
Maximum altitude 19:35:04 67° 253° (WSW) 914 4.1 -12.8°
Drops below altitude 10° 19:40:40 10° 172° (S) 2,460 6.2 -14.0°
Sets 19:43:07 0° 169° (S) 3,391 6.9 -14.5°
